When you browse on this site, cookies collect data to enhance your experience and personalize the content and advertising you see.
Visit our Privacy Policy to learn more. By continuing to use the site, you agree to this use of cookies and data.
  • In United Kingdom
  • List of Countries
  • For 7 days
  • Water Temperature
  • Weather Map
  • Weather Widgets
  • user-avatar
    Login

    Hourly Weather Banja Luka

    Today, 17 November, Sunday

    Time Temperature Precipitation Wind Pressure Humidity
    00:00 +9°C° 0 mm 2 mps 712 mmHg 92%
    01:00 +9°C° 0 mm 2 mps 712 mmHg 92%
    02:00 +9°C° 0 mm 2 mps 712 mmHg 92%
    03:00 +9°C° 0 mm 2 mps 712 mmHg 91%
    04:00 +9°C° 0 mm 2 mps 712 mmHg 91%
    05:00 +10°C° 0 mm 2 mps 711 mmHg 91%
    06:00 +10°C° 0 mm 2 mps 711 mmHg 90%
    07:00 +10°C° 0 mm 2 mps 711 mmHg 90%
    08:00 +12°C° 0 mm 3 mps 711 mmHg 85%
    09:00 +13°C° 0 mm 3 mps 711 mmHg 79%
    10:00 +14°C° 0 mm 3 mps 712 mmHg 74%
    11:00 +15°C° 0 mm 4 mps 711 mmHg 72%
    12:00 +15°C° 0 mm 4 mps 711 mmHg 69%
    13:00 +17°C° 0 mm 4 mps 711 mmHg 66%
    14:00 +15°C° 0 mm 4 mps 710 mmHg 71%
    15:00 +14°C° 0 mm 3 mps 710 mmHg 75%
    16:00 +14°C° 0 mm 2 mps 709 mmHg 79%
    17:00 +14°C° 0.1 mm 2 mps 709 mmHg 81%
    18:00 +13°C° 0.1 mm 2 mps 709 mmHg 84%
    19:00 +13°C° 0.1 mm 2 mps 709 mmHg 86%
    20:00 +13°C° 0.1 mm 2 mps 709 mmHg 87%
    21:00 +13°C° 0.1 mm 2 mps 709 mmHg 88%
    22:00 +12°C° 0.1 mm 2 mps 709 mmHg 89%
    23:00 +12°C° 0.6 mm 2 mps 708 mmHg 90%

    Tomorrow, 18 November, Monday

    Time Temperature Precipitation Wind Pressure Humidity
    00:00 +12°C° 0.6 mm 1 mps 708 mmHg 90%
    01:00 +12°C° 0.6 mm 1 mps 708 mmHg 91%
    02:00 +12°C° 1.8 mm 1 mps 708 mmHg 92%
    03:00 +11°C° 1.8 mm 1 mps 708 mmHg 93%
    04:00 +11°C° 1.8 mm 1 mps 708 mmHg 94%
    05:00 +11°C° 0.8 mm 1 mps 709 mmHg 93%
    06:00 +10°C° 0.8 mm 1 mps 709 mmHg 92%
    07:00 +9°C° 0.8 mm 2 mps 710 mmHg 92%
    08:00 +10°C° 0.1 mm 2 mps 711 mmHg 85%
    09:00 +10°C° 0.1 mm 2 mps 711 mmHg 79%
    10:00 +12°C° 0.1 mm 2 mps 712 mmHg 73%
    11:00 +12°C° 0 mm 2 mps 712 mmHg 65%
    12:00 +13°C° 0 mm 2 mps 713 mmHg 58%
    13:00 +14°C° 0 mm 2 mps 713 mmHg 50%
    14:00 +13°C° 0 mm 2 mps 713 mmHg 56%
    15:00 +12°C° 0 mm 2 mps 713 mmHg 62%
    16:00 +11°C° 0 mm 1 mps 713 mmHg 67%
    17:00 +10°C° 0 mm 1 mps 713 mmHg 73%
    18:00 +8°C° 0 mm 2 mps 714 mmHg 78%
    19:00 +8°C° 0 mm 2 mps 714 mmHg 83%
    20:00 +7°C° 0 mm 2 mps 714 mmHg 84%
    21:00 +7°C° 0 mm 2 mps 714 mmHg 85%
    22:00 +7°C° 0 mm 2 mps 714 mmHg 86%
    23:00 +7°C° 0 mm 2 mps 714 mmHg 84%

    Day after tomorrow, 19 November, Tuesday

    Time Temperature Precipitation Wind Pressure Humidity
    00:00 +7°C° 0 mm 2 mps 714 mmHg 82%
    01:00 +7°C° 0 mm 2 mps 714 mmHg 80%
    02:00 +7°C° 0 mm 2 mps 714 mmHg 79%
    03:00 +7°C° 0 mm 2 mps 714 mmHg 79%
    04:00 +7°C° 0 mm 2 mps 714 mmHg 78%
    05:00 +7°C° 0 mm 2 mps 714 mmHg 78%
    06:00 +7°C° 0 mm 2 mps 714 mmHg 78%
    07:00 +7°C° 0 mm 2 mps 714 mmHg 77%
    08:00 +8°C° 0 mm 2 mps 714 mmHg 76%
    09:00 +9°C° 0 mm 2 mps 714 mmHg 74%
    10:00 +12°C° 0 mm 2 mps 714 mmHg 73%
    11:00 +12°C° 0 mm 2 mps 714 mmHg 70%
    12:00 +12°C° 0 mm 3 mps 714 mmHg 66%
    13:00 +13°C° 0 mm 3 mps 714 mmHg 63%
    14:00 +13°C° 0 mm 2 mps 713 mmHg 68%
    15:00 +12°C° 0 mm 2 mps 713 mmHg 73%
    16:00 +10°C° 0 mm 2 mps 713 mmHg 78%
    17:00 +10°C° 0.1 mm 2 mps 713 mmHg 80%
    18:00 +9°C° 0.1 mm 2 mps 713 mmHg 83%
    19:00 +10°C° 0.1 mm 1 mps 713 mmHg 85%
    20:00 +10°C° 0.4 mm 1 mps 713 mmHg 86%
    21:00 +10°C° 0.4 mm 1 mps 713 mmHg 88%
    22:00 +10°C° 0.4 mm 1 mps 713 mmHg 89%
    23:00 +10°C° 0.3 mm 1 mps 713 mmHg 89%

    20 November, Wednesday

    Time Temperature Precipitation Wind Pressure Humidity
    00:00 +10°C° 0.3 mm 1 mps 713 mmHg 88%
    01:00 +9°C° 0.3 mm 1 mps 713 mmHg 88%
    02:00 +9°C° 0.1 mm 1 mps 712 mmHg 88%
    03:00 +9°C° 0.1 mm 1 mps 712 mmHg 87%
    04:00 +9°C° 0.1 mm 1 mps 712 mmHg 87%
    05:00 +9°C° 0.6 mm 1 mps 712 mmHg 88%
    06:00 +9°C° 0.6 mm 1 mps 712 mmHg 90%
    07:00 +9°C° 0.6 mm 1 mps 712 mmHg 92%
    08:00 +10°C° 0.2 mm 1 mps 712 mmHg 89%
    09:00 +11°C° 0.2 mm 1 mps 713 mmHg 87%
    10:00 +11°C° 0.2 mm 1 mps 713 mmHg 85%
    11:00 +11°C° 0.7 mm 1 mps 713 mmHg 87%
    12:00 +10°C° 0.7 mm 1 mps 713 mmHg 90%
    13:00 +10°C° 0.7 mm 1 mps 713 mmHg 92%
    14:00 +10°C° 0.3 mm 1 mps 713 mmHg 92%
    15:00 +10°C° 0.3 mm 1 mps 713 mmHg 92%
    16:00 +9°C° 0.3 mm 0 mps 713 mmHg 92%
    17:00 +9°C° 0 mm 1 mps 714 mmHg 92%
    18:00 +9°C° 0 mm 1 mps 714 mmHg 93%
    19:00 +8°C° 0 mm 1 mps 714 mmHg 93%
    20:00 +7°C° 0 mm 1 mps 714 mmHg 93%
    21:00 +7°C° 0 mm 1 mps 714 mmHg 93%
    22:00 +6°C° 0 mm 1 mps 715 mmHg 92%
    23:00 +6°C° 0 mm 1 mps 715 mmHg 92%

    21 November, Thursday

    Time Temperature Precipitation Wind Pressure Humidity
    00:00 +5°C° 0 mm 1 mps 715 mmHg 92%
    01:00 +4°C° 0 mm 2 mps 715 mmHg 92%
    02:00 +4°C° 0 mm 2 mps 715 mmHg 91%
    03:00 +3°C° 0 mm 2 mps 715 mmHg 91%
    04:00 +3°C° 0 mm 2 mps 714 mmHg 90%
    05:00 +3°C° 0 mm 2 mps 715 mmHg 89%
    06:00 +3°C° 0 mm 2 mps 715 mmHg 87%
    07:00 +3°C° 0 mm 2 mps 715 mmHg 85%
    08:00 +5°C° 0 mm 2 mps 715 mmHg 81%
    09:00 +7°C° 0 mm 1 mps 715 mmHg 77%
    10:00 +9°C° 0 mm 1 mps 715 mmHg 74%
    11:00 +10°C° 0 mm 1 mps 715 mmHg 69%
    12:00 +11°C° 0 mm 1 mps 715 mmHg 64%
    13:00 +11°C° 0 mm 1 mps 715 mmHg 60%
    14:00 +11°C° 0 mm 1 mps 715 mmHg 65%
    15:00 +10°C° 0 mm 1 mps 715 mmHg 71%
    16:00 +9°C° 0 mm 1 mps 714 mmHg 76%
    17:00 +8°C° 0 mm 1 mps 714 mmHg 79%
    18:00 +7°C° 0 mm 2 mps 714 mmHg 82%
    19:00 +6°C° 0 mm 2 mps 714 mmHg 85%
    20:00 +6°C° 0 mm 2 mps 714 mmHg 86%
    21:00 +6°C° 0 mm 2 mps 715 mmHg 87%
    22:00 +5°C° 0 mm 2 mps 715 mmHg 88%
    23:00 +5°C° 0 mm 2 mps 715 mmHg 89%

    22 November, Friday

    Time Temperature Precipitation Wind Pressure Humidity
    00:00 +5°C° 0 mm 2 mps 715 mmHg 89%
    01:00 +5°C° 0 mm 2 mps 715 mmHg 90%
    02:00 +5°C° 0 mm 2 mps 715 mmHg 90%
    03:00 +5°C° 0 mm 2 mps 715 mmHg 89%
    04:00 +5°C° 0 mm 2 mps 715 mmHg 89%
    05:00 +5°C° 0 mm 2 mps 715 mmHg 89%
    06:00 +5°C° 0 mm 2 mps 715 mmHg 88%
    07:00 +5°C° 0 mm 2 mps 715 mmHg 88%
    08:00 +7°C° 0 mm 2 mps 716 mmHg 83%
    09:00 +9°C° 0 mm 2 mps 716 mmHg 79%
    10:00 +12°C° 0 mm 2 mps 716 mmHg 74%
    11:00 +13°C° 0 mm 1 mps 716 mmHg 71%
    12:00 +13°C° 0 mm 1 mps 716 mmHg 68%
    13:00 +14°C° 0 mm 1 mps 716 mmHg 64%
    14:00 +13°C° 0 mm 1 mps 716 mmHg 69%
    15:00 +12°C° 0 mm 1 mps 716 mmHg 74%
    16:00 +11°C° 0 mm 1 mps 716 mmHg 79%
    17:00 +10°C° 0 mm 1 mps 716 mmHg 81%
    18:00 +8°C° 0 mm 2 mps 716 mmHg 84%
    19:00 +7°C° 0 mm 2 mps 716 mmHg 87%
    20:00 +7°C° 0 mm 2 mps 716 mmHg 86%
    21:00 +7°C° 0 mm 2 mps 716 mmHg 86%
    22:00 +6°C° 0 mm 2 mps 716 mmHg 86%
    23:00 +6°C° 0 mm 2 mps 716 mmHg 87%
    Show more